CAPE
0 0 0 0 0 0 0 0 1 2 1 2 1 1 1 0 0 0 0 0 0 810 345 0 0 0 0 0 0 0 143 217 46 39 120 131 13 113 293 305 105 101 1194 2579 2368
0 0 0 0 0 0 0 0 1 2 2 2 1 0 1 0 0 0 0 193 317 269 0 0 0 0 0 0 0 0 152 3 147 95 167 29 49 42 253 69 6 0 42 2272 2168
0 0 0 0 0 0 0 0 1 2 0 2 0 0 0 0 0 0 161 242 160 35 0 0 0 0 0 0 0 59 28 258 298 225 28 14 1 130 317 328 206 285 106 2022 2079
0 0 0 0 0 0 0 0 1 2 2 1 0 0 1 0 0 43 9 34 27 0 0 0 0 0 0 0 0 52 62 174 184 142 48 37 17 0 74 188 348 109 766 1413 2029
0 0 0 0 0 0 0 0 1 2 0 0 0 1 0 0 0 0 68 5 0 0 0 0 0 0 0 0 0 15 93 68 171 159 139 20 0 36 504 286 100 570 928 1795 2062
0 0 0 0 0 0 0 0 1 2 0 0 1 0 0 0 0 0 0 0 0 0 0 0 0 0 0 0 0 0 140 211 60 129 85 36 29 91 96 201 1284 1936 1976 1956 2016
0 0 0 0 0 0 0 0 0 2 1 1 0 0 0 0 0 0 0 0 0 0 0 0 0 0 0 0 0 0 0 136 150 103 213 0 227 50 0 0 922 1652 1831 1844 2194
1 0 0 0 0 0 0 0 0 2 0 0 0 0 0 0 0 0 0 0 0 0 0 0 0 0 0 0 2 103 38 85 149 236 272 23 205 78 3 52 1152 1349 1660 1734 2018
0 0 0 0 0 0 0 0 0 2 2 1 0 0 0 0 0 0 0 0 0 0 0 0 0 0 0 0 10 43 75 8 21 277 119 47 440 741 290 364 1297 1261 1566 1583 1915
1 1 1 0 0 0 0 0 0 0 0 0 0 0 0 0 0 0 0 0 0 0 0 0 0 0 0 9 184 13 87 11 0 0 151 44 1 820 424 544 828 1311 1525 1626 1743
0 1 1 1 0 0 0 0 0 36 0 0 0 0 0 0 0 0 0 0 0 0 0 0 0 0 0 0 5 15 81 56 186 117 150 44 0 185 560 332 319 1423 1872 1776 1650
0 1 1 1 0 0 0 0 0 0 0 0 0 0 0 0 0 0 0 0 0 0 0 0 0 0 0 0 0 3 0 40 107 144 115 28 0 203 419 23 76 306 1406 1547 1575
1 2 2 1 0 0 0 0 0 0 0 0 0 0 0 0 0 0 0 0 0 0 0 0 0 0 0 0 0 0 0 0 13 1 138 22 51 115 84 0 58 204 1212 1006 1264
1 1 1 1 0 0 0 0 0 0 0 0 0 0 0 0 0 0 0 0 0 0 0 0 0 0 0 0 0 0 0 0 0 0 9 29 179 492 244 134 23 19 490 592 993
0 1 0 1 0 0 0 0 0 0 0 0 0 0 0 0 0 0 0 0 0 0 0 0 0 0 0 0 0 0 0 0 0 0 0 2 7 267 515 199 0 0 15 504 940
0 0 1 0 0 0 0 0 0 0 0 0 0 0 0 0 0 0 0 0 0 0 0 0 0 0 0 0 0 0 0 0 0 0 0 3 0 167 117 355 55 89 362 1017 2823
0 0 1 0 0 0 0 0 0 0 0 0 0 0 0 0 0 0 0 0 0 0 0 0 0 0 0 0 0 0 0 0 0 0 0 156 39 438 583 525 326 577 761 2216 2818
0 0 0 0 0 0 0 0 0 0 0 0 0 0 0 0 0 0 0 0 0 0 0 4 4 0 0 0 0 0 0 0 83 79 66 378 443 876 926 677 361 537 928 2372 2169
0 0 0 0 0 0 0 0 0 0 0 0 0 0 0 0 0 0 0 0 0 0 48 0 9 44 0 0 0 0 0 0 0 0 74 232 341 153 266 606 890 855 863 2085 2103
0 0 0 0 0 0 0 0 0 0 0 0 0 0 0 0 0 0 0 0 0 0 0 11 10 0 0 0 0 0 0 0 0 0 76 234 208 411 877 600 1098 1102 950 2059 2684
0 0 0 0 0 0 0 0 0 0 0 0 0 0 0 0 0 0 0 0 0 0 0 0 0 0 3 0 0 0 0 0 0 25 89 248 328 827 263 528 729 1310 1271 1752 2423
0 0 0 0 0 0 0 0 0 0 0 0 0 0 0 0 0 0 0 0 0 0 0 0 0 0 8 0 0 0 0 0 8 346 167 247 445 369 470 198 590 853 1774 1957 2254
0 0 0 0 0 0 0 0 0 0 0 0 0 0 0 0 0 0 0 0 0 0 12 6 3 0 1 25 1 0 0 0 32 343 370 150 180 367 91 205 714 1422 1934 2468 2504
0 0 0 0 0 0 0 0 0 0 0 0 0 0 0 0 0 0 0 0 0 0 667 34 50 18 4 69 78 7 0 0 29 65 42 49 537 303 282 678 403 1316 2010 2768 2768
0 0 14 9 0 0 0 0 0 0 0 0 0 0 0 0 0 0 0 0 0 0 0 19 497 88 1 39 75 86 50 3 0 20 25 121 101 450 320 69 7 175 2998 2849 2919
3 0 1 0 0 0 0 0 0 0 0 0 0 0 0 0 0 0 0 0 0 10 0 7 263 102 48 32 41 63 67 26 1 0 20 48 237 83 0 0 0 189 2280 2455 2405
0 0 0 0 0 0 7 10 0 0 0 0 0 0 0 0 0 0 0 13 11 13 70 120 225 575 109 30 31 95 74 101 13 5 13 281 323 82 119 289 103 2508 1998 1994 1940
CIN
0 0 0 0 0 0 0 0 0 0 0 0 0 0 0 0 0 0 0 0 0 -632 -734 0 0 0 0 0 0 0 -13 -105 -219 -235 -52 -37 -31 -16 -71 -380 -395 -288 -66 -18 -56
0 0 0 0 0 0 0 0 0 0 0 0 0 0 0 0 0 0 0 -903 -856 -823 0 0 0 0 0 0 0 0 -125 -150 -135 -94 -3 -5 -25 -12 -265 -559 -586 0 -150 -24 -60
0 0 0 0 0 0 0 0 0 0 0 0 0 0 0 0 0 0 -943 -936 -1022 -394 0 0 0 0 0 0 0 -50 -167 -277 -189 -2 -49 -52 -2 -3 -248 -214 -189 -373 -308 -23 -47
0 0 0 0 0 0 0 0 0 0 0 0 0 0 0 0 0 -464 -132 -1158 -1181 0 0 0 0 0 0 0 0 -56 -18 -105 -1 -10 -42 -17 -11 0 -7 -221 -170 -355 -252 -156 -43
0 0 0 0 0 0 0 0 0 0 0 0 0 0 0 -23 0 0 -706 -768 0 0 0 0 0 0 0 0 0 -80 -42 -44 -11 -34 -23 -14 0 -6 -6 -202 -235 -201 -258 -74 -62
0 0 0 0 0 0 0 0 0 0 0 0 0 0 0 0 0 0 0 0 0 0 0 0 0 0 0 0 0 0 -39 -36 -61 -37 -45 -5 -62 -101 -44 -38 -13 -6 -32 -37 -32
0 0 0 0 0 0 0 0 0 0 0 0 0 0 0 0 0 0 0 0 0 0 0 0 0 0 0 0 0 0 0 -49 -47 -39 -4 -1 -69 -148 -5 -7 -5 -5 -16 -15 -12
0 0 0 0 0 0 0 0 0 0 0 0 0 0 0 0 0 0 0 0 0 0 0 0 0 0 0 0 -13 -81 -102 -33 -18 -7 -4 -34 -34 -268 -164 -115 -3 0 -8 -25 -18
0 0 0 0 0 0 0 0 0 0 0 0 0 0 0 0 0 0 0 0 0 0 0 0 0 0 0 0 -123 -84 -66 0 -271 -337 -5 -40 -13 -53 -72 -109 -8 -6 -2 -4 -7
0 0 0 0 0 0 0 0 0 0 0 0 0 0 0 0 0 0 0 0 0 0 0 0 0 0 0 -56 -54 -44 -27 -71 0 0 -17 -28 -11 -29 -27 -2 -2 -4 -9 -10 -4
0 0 0 0 0 0 0 0 0 -251 0 -2 0 0 0 0 0 0 0 0 0 0 0 0 0 0 0 -33 -88 -55 -40 -4 -382 -183 -43 -42 0 0 -5 -25 -4 -2 -12 -22 -17
0 0 0 0 0 0 0 0 0 0 0 0 0 0 0 0 0 0 0 0 0 0 0 0 0 0 0 0 0 -38 0 -41 -20 -12 -38 -80 0 -17 -292 -614 -409 -101 -5 -5 -6
0 0 0 0 0 0 0 0 0 0 0 0 0 0 0 0 0 0 0 0 0 0 0 0 0 0 0 0 0 0 0 -9 -41 -3 -35 -72 -61 -10 -475 0 -344 -64 -5 -1 -5
0 0 0 0 0 0 0 0 0 0 0 0 0 0 0 0 0 0 0 0 0 0 0 0 0 0 0 0 0 0 0 0 0 0 -38 -5 0 -1 -245 -256 -106 -18 -9 -16 -1
0 0 0 0 0 0 0 0 0 0 0 0 0 0 0 0 0 0 0 0 0 0 0 0 0 0 0 0 0 0 0 0 0 0 0 -29 -42 -64 -30 -110 0 0 -81 -5 -10
0 0 0 0 0 0 0 0 0 0 0 0 0 0 0 0 0 0 0 0 0 0 0 0 0 0 0 0 0 0 0 0 0 0 0 -10 -31 -79 -300 -105 -254 -163 -3 -4 -20
0 0 0 0 0 0 0 0 0 0 0 0 0 0 0 0 0 0 0 0 0 0 0 0 0 0 0 0 0 0 0 0 0 0 0 -15 -4 -9 -8 -52 -88 -14 -9 -6 -33
0 0 0 0 0 0 0 0 0 0 0 0 0 0 0 0 0 0 0 0 0 0 0 -63 -17 0 0 0 0 0 0 0 -1 0 -9 -119 -2 -14 -15 -31 -33 -11 -6 -13 -58
0 0 0 0 0 0 0 0 0 0 0 0 0 0 0 0 0 0 0 0 0 0 -59 0 -16 -2 0 0 0 0 0 0 0 0 -9 -153 -33 -37 -3 -28 -32 -23 -8 -6 -36
0 0 0 0 0 0 0 0 0 0 0 0 0 0 0 0 0 0 0 0 0 0 0 -46 -33 0 0 0 0 0 0 0 0 0 -2 -7 0 -23 -21 -157 -20 -16 -20 -4 -18
0 0 0 0 0 0 0 0 0 0 0 0 0 0 0 0 0 0 0 0 0 0 0 0 0 0 -1 0 0 0 0 0 0 0 -1 0 -78 -82 -194 -136 -168 -12 -31 -2 -16
0 0 0 0 0 0 0 0 0 0 0 0 0 0 0 0 0 0 0 0 -1 0 0 0 0 -14 -1 0 0 0 0 0 -13 -2 -5 -2 -55 -98 -235 -244 -181 -51 -30 -2 -22
0 0 0 0 0 0 0 0 0 0 0 0 0 0 0 0 0 0 0 0 0 0 -4 -1 -3 0 -1 -2 -1 0 0 0 -15 -10 -7 -1 -6 -37 -20 -316 -47 -21 -5 -4 -36
0 0 0 0 0 0 0 0 0 0 0 0 0 0 0 0 0 0 0 0 0 0 -128 -33 -5 -12 0 -4 -15 -1 0 0 -2 0 -3 -1 -62 -73 -182 -143 -131 -43 -1 -8 -8
0 0 -7 0 0 0 0 0 0 0 0 0 0 0 0 0 0 0 0 0 0 0 0 -1 0 -1 -2 -2 -3 -1 -3 0 0 -2 0 -9 -25 -123 -306 -284 -82 -190 -2 0 -3
0 0 -4 0 0 0 0 0 0 0 0 0 0 0 0 0 0 0 0 0 0 -2 0 -2 -1 -4 -21 -1 -1 0 -1 0 -1 0 -1 -1 -297 -306 0 0 0 -232 0 0 -4
0 0 0 0 0 0 0 -1 0 0 0 0 0 0 0 0 0 0 0 -7 -1 -3 -1 -12 -2 0 0 -8 -2 -1 -3 -5 -1 -3 0 -34 -245 -343 -232 -152 -362 0 -5 -14 -27
Wind_Speed
15 15 15 15 14 14 15 15 15 14 14 14 13 11 11 11 14 7 10 2 7 11 6 9 13 14 13 15 17 14 5 3 3 18 7 13 3 6 23 31 26 29 6 22 19
16 16 16 15 15 15 15 15 15 14 14 12 12 10 10 10 10 15 5 10 11 12 12 11 11 12 11 13 11 11 7 10 14 20 11 12 1 9 20 27 12 11 10 15 18
16 16 16 16 16 16 15 15 15 13 13 11 10 9 9 10 9 3 9 13 12 13 15 13 10 11 13 14 14 15 12 33 23 4 10 9 13 5 28 17 11 19 13 13 15
17 17 17 17 17 16 16 16 15 14 12 10 9 7 7 8 3 7 8 10 11 15 15 11 12 11 13 14 15 14 15 27 8 6 10 12 16 10 6 13 17 25 17 15 15
18 18 18 18 17 17 17 17 15 14 12 9 8 6 7 8 5 8 10 8 12 15 15 11 12 11 13 15 14 13 14 18 8 12 11 6 10 12 24 22 21 15 16 16 13
17 18 18 18 18 18 17 17 15 14 11 7 5 3 7 9 10 12 14 14 14 15 15 12 10 12 15 16 19 16 14 14 19 11 13 8 14 18 13 19 19 18 17 15 16
18 18 19 19 18 18 17 17 16 12 8 4 3 6 9 11 5 12 14 14 15 16 11 12 14 13 14 14 18 15 19 14 15 18 18 6 12 3 8 19 5 15 13 14 15
18 19 19 20 20 19 18 16 14 10 5 3 3 6 9 5 3 11 14 14 12 12 11 7 11 13 18 14 20 13 16 15 18 23 4 4 5 11 18 18 8 10 11 13 13
19 20 20 21 21 20 19 17 12 9 7 6 6 7 9 4 10 13 15 12 8 7 8 8 6 13 15 15 15 16 16 21 9 36 8 5 9 16 19 21 13 9 9 11 12
20 20 21 21 21 20 24 18 7 7 8 10 10 9 10 9 12 14 14 9 10 8 7 9 7 12 13 14 13 18 13 7 11 28 13 11 7 17 16 11 11 17 12 10 13
20 21 22 23 23 19 14 4 6 6 10 12 3 13 7 3 7 11 13 13 11 10 13 13 11 14 17 17 17 21 19 13 23 18 3 8 9 4 7 12 8 15 13 11 9
20 21 22 23 24 23 8 9 9 8 12 17 20 20 15 9 10 13 15 14 15 13 14 13 14 17 17 16 16 15 16 15 12 9 4 8 11 9 17 21 34 23 12 12 13
21 21 23 25 26 11 11 7 7 11 8 15 21 19 16 15 16 17 19 19 16 16 16 15 8 15 14 15 14 15 14 15 14 14 6 10 12 13 8 17 23 20 11 10 10
20 21 21 29 5 10 9 5 6 6 7 12 15 10 14 14 16 20 20 19 13 16 17 15 17 16 7 14 14 14 14 12 14 13 11 8 10 5 15 16 6 28 11 6 7
20 20 21 8 12 8 7 8 8 7 7 8 17 11 14 15 4 20 22 19 19 17 13 16 13 15 17 12 13 14 13 8 8 13 14 17 11 8 5 8 7 10 28 5 10
22 18 21 2 8 13 12 9 8 7 10 10 12 12 15 19 13 10 20 17 16 20 18 17 15 11 13 14 13 11 14 6 12 13 13 15 15 7 5 11 6 14 5 12 22
24 19 9 9 8 14 9 8 7 10 7 9 14 14 18 18 18 13 19 19 19 16 18 18 18 12 10 13 13 11 11 8 11 11 13 14 17 6 19 17 13 12 10 19 18
29 24 9 9 10 10 7 9 12 10 23 12 2 14 20 21 19 19 16 18 22 23 13 14 15 20 16 15 13 17 14 11 14 8 4 13 13 5 16 12 9 11 14 23 19
30 9 7 9 14 8 8 13 9 16 16 11 11 14 13 16 18 19 19 19 21 23 19 14 18 10 19 13 14 11 12 16 18 18 6 10 14 9 6 13 10 11 9 19 17
9 9 12 14 13 8 9 17 16 23 19 14 11 14 16 18 13 13 17 18 20 22 20 19 14 13 9 15 16 16 9 9 10 15 15 8 13 8 6 8 5 8 9 16 19
7 7 7 14 10 9 14 19 19 24 13 8 11 16 18 19 14 19 17 16 18 20 20 16 13 14 11 11 13 11 14 13 12 12 12 9 5 2 2 4 1 8 9 13 19
7 8 10 10 9 10 15 21 21 21 13 13 15 18 19 16 13 8 15 16 15 15 17 11 7 13 16 12 11 17 14 16 9 12 12 6 4 14 6 3 13 19 12 14 17
7 10 10 10 11 13 18 23 23 21 16 12 14 16 16 16 11 11 17 8 6 12 5 13 8 11 13 11 15 17 15 14 12 12 12 8 3 13 21 11 16 15 14 13 17
7 5 8 8 12 20 17 18 21 21 17 16 16 16 17 14 15 12 16 9 5 8 7 6 9 11 14 8 8 9 12 13 15 11 14 14 10 9 9 6 10 7 12 17 17
6 7 13 7 10 16 18 19 21 17 12 16 19 19 16 16 15 17 17 17 11 4 7 8 13 14 18 15 10 13 17 16 18 15 12 8 7 13 10 4 7 8 11 14 11
9 7 12 14 14 16 12 20 19 18 18 19 18 18 15 15 15 13 15 15 14 13 11 12 12 13 18 20 17 13 14 9 13 16 18 17 18 10 10 4 2 7 9 10 11
10 10 8 10 14 12 12 15 17 19 20 20 15 18 17 16 17 16 17 7 11 14 9 14 12 12 15 18 18 16 8 13 13 13 14 2 16 17 12 3 7 14 13 12 13
Wind_Direction
3 2 1 360 356 351 344 338 334 331 328 324 320 320 317 316 297 233 240 220 178 171 252 208 224 240 254 262 259 278 2 16 175 280 147 255 76 195 72 75 342 341 105 133 147
360 359 357 355 353 348 342 335 332 331 325 321 316 314 311 313 270 257 219 113 143 162 204 211 221 233 245 258 246 235 85 283 234 216 345 324 182 16 93 106 166 310 332 132 147
357 355 352 351 349 345 339 335 332 329 321 317 315 310 303 298 272 122 110 138 157 175 208 218 238 239 251 256 242 246 163 225 252 24 308 332 299 173 130 129 169 221 182 178 163
354 351 349 347 345 340 337 333 332 326 319 312 311 306 306 253 348 94 162 146 166 195 237 215 240 238 259 255 253 246 275 194 290 333 301 307 344 337 354 169 183 199 172 202 171
351 348 345 344 341 335 334 332 331 325 314 306 305 302 269 229 255 124 143 149 176 199 226 214 231 246 251 260 256 252 268 286 285 287 291 344 301 328 8 149 162 170 174 197 154
348 345 342 339 336 331 329 331 328 321 310 297 294 292 252 253 103 142 151 164 171 197 221 221 233 239 264 282 290 277 252 262 274 286 283 272 58 58 336 325 139 144 162 166 158
346 343 339 336 331 328 325 328 323 312 319 291 264 259 257 259 136 166 162 178 181 214 218 224 249 267 250 265 266 272 272 273 269 251 247 283 51 70 250 275 185 146 161 162 160
345 342 337 333 329 326 320 319 312 295 297 272 255 263 272 117 236 175 187 198 207 220 254 240 244 277 273 279 282 263 271 265 257 275 202 207 135 220 229 234 169 166 164 153 159
344 340 336 330 326 321 316 309 294 258 256 248 242 237 263 135 208 190 201 196 188 226 231 255 259 246 253 249 262 249 250 242 22 308 277 202 143 206 219 218 154 176 166 159 162
342 338 334 330 325 324 321 297 183 235 222 223 258 259 225 232 179 184 208 199 196 204 197 231 230 245 233 247 248 261 260 74 93 267 195 238 255 170 213 164 193 168 165 163 170
342 336 332 327 322 325 332 236 225 183 224 256 145 250 129 108 127 182 191 201 202 210 226 193 218 228 239 229 262 289 304 315 182 231 355 287 289 334 176 3 241 161 159 167 197
341 336 330 325 318 317 276 278 53 324 295 271 260 253 259 159 190 196 189 197 204 218 219 229 233 247 250 264 274 282 287 287 292 276 228 290 297 57 89 88 288 297 163 177 181
341 337 332 325 316 288 256 329 343 312 269 278 239 225 209 212 229 185 192 205 202 225 223 229 244 209 242 261 257 267 270 285 277 300 221 259 258 253 118 152 232 279 162 194 180
339 337 334 327 295 339 277 59 313 333 275 254 192 220 199 200 233 239 182 210 237 228 228 247 241 260 252 244 252 258 253 248 284 293 279 292 282 248 156 195 256 315 168 188 146
335 336 328 327 310 277 15 326 330 267 280 121 160 120 184 196 143 204 170 211 224 231 238 241 235 240 245 242 236 256 276 311 301 276 274 269 271 53 91 80 92 339 280 154 130
329 333 333 231 212 262 307 304 274 232 240 188 141 193 191 208 237 173 189 206 232 247 242 249 245 232 244 238 249 250 268 245 272 266 261 250 257 178 126 205 205 207 136 113 96
323 319 303 307 249 351 328 264 221 238 213 237 175 199 209 207 217 201 197 197 220 221 240 236 241 226 244 258 223 228 256 239 243 231 243 278 234 237 156 165 179 164 123 107 121
319 309 228 238 270 263 263 229 237 248 241 304 289 202 207 216 195 203 204 217 218 234 244 219 231 217 209 229 246 206 241 243 245 231 330 358 325 10 115 107 112 131 157 129 135
310 277 224 236 220 246 243 221 223 240 287 267 222 247 259 240 252 197 204 218 218 221 243 259 248 213 209 190 240 244 213 254 272 284 217 190 227 180 159 118 126 138 177 133 149
309 288 249 199 165 199 232 242 239 257 294 296 268 258 240 248 218 241 204 216 227 218 224 257 275 281 200 192 203 250 225 230 239 266 278 203 214 145 93 53 131 162 182 133 141
259 245 126 134 175 216 225 233 242 264 300 274 278 263 268 265 230 216 241 227 216 223 226 222 256 275 244 202 237 204 243 254 256 239 252 278 72 103 178 226 275 217 172 147 140
291 248 148 162 201 224 232 237 263 267 238 229 265 282 287 280 283 267 259 246 222 208 217 215 232 243 263 189 228 261 226 230 244 245 268 290 162 163 140 1 231 232 151 155 150
281 268 164 205 233 230 233 247 249 253 256 251 233 257 264 278 284 260 263 300 356 185 281 203 213 250 254 243 193 217 235 218 226 273 282 294 239 172 147 225 207 139 147 129 129
276 247 224 196 247 262 264 251 233 242 253 235 253 236 259 247 256 263 265 263 165 263 22 350 275 224 244 252 10 227 242 254 250 229 244 248 101 74 342 20 27 347 131 116 133
245 265 354 245 220 232 256 268 274 228 201 248 261 248 231 245 243 236 252 276 173 180 254 254 261 260 248 279 265 274 240 216 248 240 257 286 152 178 153 76 14 358 111 129 124
306 344 347 305 312 296 271 242 257 274 223 224 236 256 237 252 241 245 239 259 278 183 211 249 246 262 272 279 265 224 258 275 224 244 248 257 100 163 144 216 133 250 159 158 150
2 332 305 295 287 271 278 271 239 262 276 242 213 236 245 240 253 255 260 302 278 272 210 218 245 241 255 253 265 270 259 284 254 264 280 340 149 163 177 142 213 193 181 160 129